Total_Precipitation_Accumulation
0.06 0.02 0.02 0.02 0.03 0.05 0.04 0.05 0.06 0.08 0.07 0.07 0.06 0.05 0.05 0.05 0.05 0.04 0.04 0.05 0.07 0.12 0.16 0.18 0.20 0.23 0.25 0.19 0.10 0.07 0.06 0.06 0.07 0.08 0.10 0.11 0.13 0.15 0.15 0.12 0.13 0.09 0.07
0.06 0.03 0.02 0.01 0.02 0.04 0.04 0.05 0.06 0.07 0.07 0.06 0.06 0.05 0.05 0.05 0.06 0.06 0.06 0.06 0.09 0.12 0.13 0.14 0.16 0.17 0.16 0.10 0.06 0.06 0.06 0.07 0.13 0.20 0.25 0.26 0.25 0.21 0.24 0.25 0.24 0.15 0.08
0.05 0.03 0.02 0.01 0.02 0.03 0.04 0.06 0.07 0.08 0.08 0.08 0.07 0.06 0.06 0.06 0.07 0.07 0.07 0.08 0.11 0.14 0.12 0.11 0.11 0.10 0.08 0.06 0.05 0.06 0.08 0.12 0.23 0.36 0.61 0.74 0.57 0.42 0.31 0.27 0.24 0.17 0.14
0.04 0.02 0.02 0.02 0.02 0.02 0.03 0.05 0.07 0.08 0.07 0.07 0.06 0.05 0.06 0.06 0.07 0.08 0.08 0.10 0.15 0.18 0.16 0.12 0.09 0.07 0.05 0.04 0.04 0.06 0.10 0.16 0.29 0.53 1.10 0.98 0.92 0.72 0.38 0.27 0.22 0.24 0.30
0.04 0.02 0.02 0.02 0.02 0.02 0.03 0.03 0.05 0.07 0.06 0.07 0.06 0.06 0.07 0.07 0.07 0.09 0.13 0.17 0.18 0.19 0.20 0.17 0.12 0.08 0.04 0.03 0.04 0.07 0.11 0.19 0.36 0.70 1.14 1.32 1.41 0.87 0.49 0.37 0.32 0.31 0.38
0.04 0.01 0.01 0.02 0.03 0.03 0.03 0.03 0.06 0.07 0.07 0.07 0.07 0.08 0.08 0.09 0.09 0.13 0.21 0.26 0.24 0.22 0.25 0.24 0.20 0.13 0.06 0.04 0.05 0.08 0.13 0.23 0.39 0.71 1.10 1.57 1.38 0.86 0.58 0.46 0.41 0.40 0.44
0.05 0.02 0.02 0.04 0.05 0.04 0.04 0.05 0.07 0.08 0.10 0.12 0.12 0.12 0.12 0.12 0.13 0.18 0.26 0.27 0.27 0.26 0.26 0.23 0.17 0.10 0.07 0.07 0.07 0.10 0.17 0.27 0.40 0.76 1.10 1.44 1.19 0.73 0.53 0.43 0.39 0.38 0.44
0.08 0.03 0.03 0.05 0.07 0.07 0.07 0.09 0.10 0.11 0.13 0.15 0.15 0.15 0.12 0.12 0.14 0.20 0.24 0.26 0.27 0.24 0.20 0.15 0.12 0.10 0.11 0.12 0.12 0.14 0.19 0.22 0.32 0.71 0.99 1.07 0.78 0.52 0.38 0.34 0.29 0.26 0.28
0.14 0.13 0.11 0.12 0.10 0.11 0.14 0.18 0.19 0.17 0.17 0.17 0.15 0.14 0.12 0.13 0.16 0.19 0.23 0.28 0.28 0.19 0.15 0.13 0.10 0.09 0.08 0.08 0.09 0.10 0.13 0.20 0.28 0.53 0.90 0.97 0.58 0.43 0.37 0.30 0.22 0.21 0.22
0.33 0.32 0.32 0.26 0.20 0.18 0.20 0.23 0.24 0.25 0.24 0.21 0.17 0.13 0.15 0.18 0.20 0.23 0.20 0.22 0.21 0.15 0.12 0.09 0.07 0.06 0.04 0.04 0.04 0.06 0.11 0.13 0.19 0.45 0.73 0.74 0.56 0.52 0.46 0.36 0.26 0.22 0.21
0.71 0.70 0.60 0.50 0.36 0.33 0.32 0.27 0.30 0.30 0.29 0.25 0.22 0.19 0.22 0.26 0.29 0.32 0.26 0.28 0.22 0.17 0.13 0.10 0.08 0.07 0.06 0.04 0.04 0.06 0.08 0.09 0.23 0.43 0.69 0.66 0.68 0.68 0.62 0.52 0.40 0.31 0.26
1.06 0.94 0.71 0.68 0.62 0.57 0.46 0.42 0.44 0.37 0.33 0.30 0.35 0.31 0.36 0.52 0.61 0.57 0.55 0.43 0.36 0.29 0.22 0.17 0.14 0.11 0.07 0.08 0.08 0.08 0.07 0.09 0.21 0.37 0.59 0.68 0.75 0.81 0.76 0.63 0.49 0.40 0.35
1.13 0.94 0.82 0.85 0.82 0.82 0.82 0.85 0.77 0.70 0.65 0.55 0.62 0.60 0.64 0.69 0.67 0.71 0.69 0.58 0.51 0.48 0.43 0.39 0.26 0.20 0.17 0.18 0.19 0.16 0.14 0.15 0.20 0.32 0.54 0.67 0.70 0.82 0.86 0.73 0.60 0.55 0.47
1.42 1.17 0.94 0.88 0.92 1.05 1.09 1.11 1.12 1.10 1.04 0.93 0.88 0.81 0.89 0.96 0.97 0.91 0.98 0.94 0.90 0.85 0.78 0.69 0.56 0.45 0.38 0.37 0.40 0.38 0.32 0.29 0.32 0.41 0.56 0.61 0.66 0.85 0.90 0.82 0.71 0.66 0.59
1.85 1.64 1.33 1.23 1.18 1.17 1.28 1.31 1.14 1.18 1.23 1.30 1.22 1.11 1.18 1.12 1.14 1.27 1.25 1.32 1.25 1.29 1.20 1.04 0.86 0.76 0.66 0.60 0.62 0.61 0.55 0.54 0.52 0.57 0.70 0.75 0.74 0.85 0.96 0.95 0.87 0.79 0.75
2.07 1.95 1.69 1.45 1.44 1.41 1.53 1.60 1.47 1.38 1.39 1.42 1.46 1.36 1.41 1.42 1.43 1.48 1.51 1.56 1.47 1.46 1.48 1.36 1.14 1.01 0.93 0.83 0.77 0.74 0.73 0.76 0.77 0.73 0.85 0.90 0.85 0.81 0.93 1.08 1.10 1.10 1.11
2.18 1.99 1.94 1.75 1.86 1.90 1.99 1.99 2.01 1.94 1.90 1.82 1.76 1.77 1.72 1.70 1.72 1.66 1.80 1.91 1.77 1.70 1.71 1.61 1.51 1.26 1.24 1.22 1.15 1.06 0.97 0.94 1.00 0.99 1.03 1.11 1.14 1.03 0.99 1.09 1.18 1.23 1.27
1.97 1.97 2.03 1.90 1.93 2.09 2.08 2.02 2.08 2.26 2.28 2.20 2.11 2.13 2.00 1.97 2.02 2.12 2.08 2.02 1.97 1.92 1.91 1.95 1.79 1.57 1.51 1.61 1.55 1.36 1.17 1.16 1.26 1.25 1.21 1.26 1.33 1.26 1.22 1.12 1.13 1.21 1.26
1.92 1.77 1.83 2.04 1.99 2.11 2.13 2.10 2.20 2.44 2.57 2.61 2.56 2.46 2.36 2.36 2.38 2.49 2.58 2.44 2.27 2.16 2.15 2.03 1.98 1.86 1.85 1.83 1.64 1.44 1.25 1.20 1.28 1.31 1.29 1.33 1.41 1.45 1.42 1.21 1.19 1.31 1.34
1.88 1.87 1.85 2.04 2.05 2.19 2.31 2.23 2.31 2.39 2.49 2.63 2.76 2.86 2.99 3.05 3.02 2.96 2.86 2.72 2.55 2.44 2.39 2.28 2.22 2.14 2.02 1.86 1.57 1.40 1.22 1.12 1.15 1.21 1.26 1.26 1.26 1.28 1.28 1.22 1.19 1.17 1.20
1.98 2.01 1.93 1.96 2.16 2.25 2.38 2.50 2.73 2.74 2.72 2.96 3.26 3.42 3.62 3.70 3.53 3.46 3.35 3.16 2.96 2.74 2.60 2.40 2.26 2.17 2.01 1.83 1.64 1.47 1.24 1.04 1.02 1.07 1.07 1.09 1.11 1.08 1.09 1.10 1.15 1.11 1.06
2.05 2.03 2.09 2.25 2.34 2.45 2.78 3.22 3.62 3.91 4.07 4.15 4.31 4.37 4.29 4.15 4.03 3.91 3.80 3.56 3.29 3.04 2.80 2.58 2.32 2.15 1.96 1.77 1.65 1.64 1.45 1.22 0.95 0.80 0.81 0.81 0.82 0.79 0.82 0.87 0.85 0.86 0.85
1.91 2.09 2.18 2.47 2.80 3.11 3.58 4.13 4.52 4.89 5.13 5.05 4.86 4.73 4.51 4.31 4.11 3.79 3.58 3.51 3.28 2.93 2.69 2.49 2.26 2.08 1.87 1.69 1.54 1.57 1.48 1.30 1.07 0.91 0.77 0.68 0.65 0.67 0.66 0.71 0.75 0.71 0.67
1.68 1.96 2.22 2.55 3.06 3.76 4.43 5.01 5.42 5.60 5.61 5.52 5.26 4.88 4.48 4.16 3.85 3.51 3.22 2.98 2.77 2.50 2.27 2.11 2.00 1.90 1.80 1.67 1.55 1.33 1.12 0.96 0.98 0.96 0.85 0.73 0.66 0.65 0.60 0.58 0.60 0.63 0.60
1.45 1.76 2.14 2.61 3.24 3.87 4.53 5.09 5.52 5.67 5.59 5.34 4.90 4.40 3.90 3.43 3.08 2.80 2.52 2.24 2.03 1.84 1.67 1.51 1.47 1.59 1.64 1.62 1.58 1.47 1.28 1.08 0.93 0.88 0.88 0.82 0.77 0.74 0.67 0.61 0.55 0.55 0.53
1.28 1.61 1.98 2.40 2.94 3.45 3.86 4.37 4.68 4.85 4.79 4.46 3.99 3.41 2.96 2.64 2.35 2.11 1.87 1.65 1.47 1.29 1.16 1.11 1.11 1.17 1.27 1.34 1.36 1.34 1.31 1.28 1.15 1.01 0.98 0.95 0.92 0.90 0.82 0.75 0.68 0.61 0.57